MDT,Max TemperatureF,Mean TemperatureF,Min TemperatureF,Max Dew PointF,MeanDew PointF,Min DewpointF,Max Humidity, Mean Humidity, Min Humidity, Max Sea Level PressureIn, Mean Sea Level PressureIn, Min Sea Level PressureIn, Max VisibilityMiles, Mean VisibilityMiles, Min VisibilityMiles, Max Wind SpeedMPH, Mean Wind SpeedMPH, Max Gust SpeedMPH,PrecipitationIn, CloudCover, Events, WindDirDegrees
2013-7-1,88,73,57,61,58,54,100,68,36,30.18,30.13,30.07,10,10,9,12,6,16,0.00,0,,101
2013-7-2,97,79,60,61,56,52,78,51,23,30.08,29.96,29.82,10,10,10,15,6,17,0.00,0,,183
2013-7-3,89,76,62,63,58,49,87,59,30,29.96,29.84,29.80,10,10,10,22,12,28,0.00,0,,325
2013-7-4,86,71,56,60,51,39,93,57,20,29.90,29.80,29.68,10,10,10,21,8,24,0.00,1,,282
2013-7-5,75,63,51,56,52,44,87,65,43,29.92,29.83,29.71,10,9,1,51,13,62,0.59,6,Rain,345
2013-7-6,72,60,48,52,50,47,96,70,44,30.02,29.94,29.85,10,10,10,26,9,33,0.00,5,,333
2013-7-7,77,63,48,60,53,47,93,67,41,29.99,29.94,29.87,10,9,0,29,7,37,0.39,4,Fog-Rain,33
2013-7-8,71,60,49,57,54,48,93,75,57,30.10,29.98,29.90,10,9,2,37,8,44,0.42,5,Rain,7
2013-7-9,80,63,45,52,45,37,93,59,24,30.17,30.11,30.04,10,10,10,9,4,17,0.00,0,,247
2013-7-10,87,68,49,52,46,40,80,49,18,30.03,29.90,29.73,10,10,10,21,6,26,0.00,0,,245
2013-7-11,82,70,57,51,42,30,72,47,21,29.72,29.68,29.65,10,10,10,35,17,43,0.00,0,,253
2013-7-12,79,63,47,42,34,24,61,39,17,29.90,29.80,29.73,10,10,10,26,12,35,0.00,1,,274
2013-7-13,70,61,51,48,44,40,83,62,40,30.21,30.05,29.88,10,10,5,30,13,37,0.05,3,Rain,359
2013-7-14,82,65,47,50,44,27,93,54,14,30.22,30.08,29.92,10,10,10,16,7,25,0.00,0,,142
2013-7-15,84,64,44,53,43,24,83,48,12,30.18,29.96,29.84,10,10,10,31,14,38,0.00,1,,340
2013-7-16,74,62,50,46,44,41,77,55,33,30.26,30.20,30.15,10,10,10,17,8,32,0.00,2,,64
2013-7-17,87,68,49,63,53,46,90,61,32,30.16,30.05,29.92,10,10,5,30,7,36,0.06,1,Rain,114
2013-7-18,85,69,52,56,46,37,93,57,20,30.06,30.03,29.99,10,10,10,24,10,33,0.00,0,,292
2013-7-19,86,68,50,52,47,39,89,56,23,30.06,30.00,29.95,10,10,10,21,8,24,0.00,1,,330
2013-7-20,88,70,51,52,44,35,89,53,16,30.01,29.88,29.74,10,10,10,20,9,25,0.00,1,,263
2013-7-21,87,71,54,53,46,37,78,51,23,29.89,29.79,29.73,10,10,10,22,9,30,0.00,0,,309
2013-7-22,81,65,48,55,51,47,89,63,36,29.93,29.85,29.81,10,10,9,23,6,28,0.06,1,Rain,57
2013-7-23,83,68,53,55,52,49,93,64,34,30.08,30.02,29.91,10,10,10,17,9,22,0.00,0,,48
2013-7-24,87,70,52,55,49,41,89,56,22,30.21,30.04,29.95,10,10,10,41,10,53,0.00,0,,40
2013-7-25,81,65,49,53,50,48,93,64,35,30.18,30.12,30.06,10,10,10,18,9,24,0.00,0,,105
2013-7-26,89,70,50,49,45,40,74,46,18,30.14,30.04,29.93,10,10,10,21,10,26,0.00,0,,125
2013-7-27,88,69,49,56,47,24,86,48,10,29.94,29.88,29.79,10,10,10,28,11,32,0.00,0,,42
2013-7-28,77,62,47,50,45,39,93,61,29,29.96,29.91,29.85,10,10,10,32,11,38,T,2,,3
2013-7-29,67,59,50,48,45,43,83,63,42,30.13,30.08,30.01,10,10,6,17,10,22,0.01,7,Rain,6
2013-7-30,71,60,48,49,46,41,93,67,41,30.24,30.18,30.12,10,10,8,28,6,39,0.02,5,Rain,16
2013-7-31,84,64,43,49,44,37,96,58,19,30.25,30.16,30.08,10,10,10,14,4,17,0.00,0,,30